North Myrtle Beach, SC

5:55 AM EST on December 16, 2019 (GMT -0500)
Grand Strand

Weather History for KCRE - October, 2019

Change the Weather History Date:

Tuesday, October 29, 2019

  Actual Average Record
Temperature  
Mean Temperature 70 °F 61 °F  
Max Temperature 76 °F 71 °F 83 °F (1991)
Min Temperature 64 °F 51 °F 29 °F (1952)
Degree Days  
Heating Degree Days 0 5  
Month to date heating degree days 12 75  
Since 1 July heating degree days 12 79  
Cooling Degree Days 5 2  
Month to date cooling degree days 178 96  
Year to date cooling degree days 2361 1880  
Growing Degree Days 20 (Base 50)    
Moisture  
Dew Point 65 °F    
Average Humidity 87    
Maximum Humidity 100    
Minimum Humidity 73    
Precipitation  
Precipitation 0.01 in 0.11 in 0.82 in (1959)
Month to date precipitation 4.08 3.67  
Year to date precipitation 46.65 45.30  
Sea Level Pressure  
Sea Level Pressure 30.16 in    
Wind  
Wind Speed 6 mph (NNE)    
Max Wind Speed 10 mph    
Max Gust Speed 13 mph    
Visibility 8 miles    
Events Fog , Rain    
T = Trace of Precipitation, MM = Missing Value Source: NWS Daily Summary

Daily Weather History Graph

Daily Weather History Graph

Search for Another Location

Airport or City:

Astronomy

Oct. 29, 2019 Rise Set
Actual Time 7:31 AM EDT 6:25 PM EDT
Civil Twilight 7:05 AM EDT 6:51 PM EDT
Nautical Twilight 6:36 AM EDT 7:20 PM EDT
Astronomical Twilight 6:07 AM EDT 7:49 PM EDT
Moon 9:00 AM EDT (10/29) 7:52 PM EDT (10/29)
Length of Visible Light 11h 45m
Length of Day
10h 54m
Waxing Crescent, 3% of the Moon is Illuminated
Oct 29
Waxing Crescent
Nov 4
First Quarter
Nov 12
Full
Nov 19
Last Quarter
Nov 26
New

Hourly Weather History & Observations

Time (EDT) Temp. Dew Point Humidity Pressure Visibility Wind Dir Wind Speed Gust Speed Precip Events Conditions
12:45 AM 70.0 °F 68.0 °F 93% 30.12 in 10.0 mi NE 4.6 mph - N/A   Overcast
12:53 AM 70.0 °F 68.0 °F 93% 30.12 in 10.0 mi NE 4.6 mph - N/A   Mostly Cloudy
1:09 AM 70.0 °F 68.0 °F 93% 30.12 in 10.0 mi NE 5.8 mph - N/A   Overcast
1:30 AM 70.0 °F 66.9 °F 90% 30.12 in 10.0 mi NNE 4.6 mph - N/A   Overcast
1:53 AM 69.1 °F 66.9 °F 93% 30.13 in 10.0 mi NE 6.9 mph - N/A   Overcast
2:27 AM 66.9 °F 66.0 °F 97% 30.12 in 10.0 mi ENE 6.9 mph - N/A   Scattered Clouds
2:53 AM 66.9 °F 64.9 °F 93% 30.12 in 10.0 mi NE 6.9 mph - N/A   Clear
3:53 AM 66.0 °F 64.0 °F 93% 30.12 in 10.0 mi NNE 8.1 mph - N/A   Partly Cloudy
4:17 AM 64.9 °F 64.0 °F 97% 30.12 in 10.0 mi NNE 8.1 mph - N/A   Mostly Cloudy
4:28 AM 64.9 °F 63.0 °F 93% 30.12 in 10.0 mi NNE 8.1 mph - N/A   Mostly Cloudy
5:53 AM 64.9 °F 64.0 °F 97% 30.14 in 10.0 mi North 5.8 mph - N/A   Overcast
6:23 AM 64.9 °F 64.0 °F 97% 30.14 in 10.0 mi North 4.6 mph - N/A   Mostly Cloudy
6:38 AM 64.9 °F 63.0 °F 93% 30.14 in 10.0 mi NNE 5.8 mph - N/A   Mostly Cloudy
6:45 AM 64.9 °F 63.0 °F 93% 30.14 in 10.0 mi NE 9.2 mph - N/A   Mostly Cloudy
6:53 AM 64.9 °F 64.0 °F 97% 30.14 in 8.0 mi NE 5.8 mph - N/A   Mostly Cloudy
7:15 AM 64.0 °F 64.0 °F 100% 30.15 in 2.5 mi NNE 8.1 mph - N/A   Overcast
7:30 AM 64.0 °F 64.0 °F 100% 30.15 in 1.2 mi NNE 8.1 mph - N/A   Overcast
7:53 AM 64.0 °F 64.0 °F 100% 30.16 in 0.2 mi NNE 6.9 mph - N/A Fog Fog
8:22 AM 64.0 °F 64.0 °F 100% 30.16 in 0.5 mi ENE 8.1 mph - N/A Fog Fog
8:39 AM 64.9 °F 64.0 °F 97% 30.16 in 0.2 mi NE 8.1 mph - N/A Fog Fog
8:53 AM 64.9 °F 64.0 °F 97% 30.17 in 0.2 mi NE 6.9 mph - N/A Fog Fog
9:00 AM 64.9 °F 64.0 °F 97% 30.17 in 1.0 mi NNE 8.1 mph - N/A   Overcast
9:15 AM 64.9 °F 64.0 °F 97% 30.17 in 1.0 mi NE 6.9 mph - N/A   Overcast
10:51 AM 69.8 °F 64.4 °F 83% 30.18 in 10.0 mi North 5.8 mph - N/A   Partly Cloudy
10:53 AM 70.0 °F 64.9 °F 84% 30.19 in 10.0 mi Variable 5.8 mph - N/A   Partly Cloudy
11:53 AM 73.0 °F 64.9 °F 76% 30.18 in 10.0 mi Calm Calm - 0.00 in   Clear
12:53 PM 75.0 °F 66.0 °F 73% 30.17 in 10.0 mi Variable 4.6 mph - N/A   Mostly Cloudy
1:53 PM 73.0 °F 66.9 °F 81% 30.16 in 10.0 mi NW 3.5 mph - 0.00 in Rain Light Rain
2:53 PM 73.0 °F 66.9 °F 81% 30.15 in 10.0 mi NNW 5.8 mph - 0.01 in Rain Light Rain
3:53 PM 72.0 °F 66.9 °F 84% 30.15 in 10.0 mi North 8.1 mph - 0.00 in   Overcast
4:53 PM 71.1 °F 68.0 °F 90% 30.16 in 10.0 mi North 6.9 mph - 0.00 in Rain Light Rain
5:53 PM 71.1 °F 68.0 °F 90% 30.16 in 10.0 mi NNE 5.8 mph - 0.00 in   Overcast
6:53 PM 70.0 °F 68.0 °F 93% 30.17 in 10.0 mi NNW 5.8 mph - 0.00 in   Mostly Cloudy
7:53 PM 69.1 °F 66.9 °F 93% 30.19 in 10.0 mi Calm Calm - N/A   Mostly Cloudy
8:53 PM 68.0 °F 66.0 °F 93% 30.19 in 10.0 mi North 8.1 mph - N/A   Scattered Clouds
9:17 PM 68.0 °F 66.0 °F 93% 30.19 in 10.0 mi North 4.6 mph - N/A   Mostly Cloudy
9:40 PM 68.0 °F 66.0 °F 93% 30.19 in 9.0 mi North 5.8 mph - N/A   Mostly Cloudy
9:53 PM 68.0 °F 66.0 °F 93% 30.19 in 9.0 mi NNE 5.8 mph - N/A   Mostly Cloudy
10:53 PM 66.9 °F 66.0 °F 97% 30.19 in 8.0 mi North 5.8 mph - 0.00 in   Mostly Cloudy
11:24 PM 66.9 °F 64.9 °F 93% 30.20 in 9.0 mi NW 4.6 mph - N/A   Scattered Clouds
11:53 PM 66.9 °F 64.9 °F 93% 30.19 in 9.0 mi NNE 5.8 mph - N/A   Partly Cloudy